NORTHEAST SUFFOLK  -  Freeze Watch Freeze Watch        NORTHWEST SUFFOLK  -  Freeze Watch Freeze Watch        SOUTHEAST SUFFOLK  -  Freeze Watch Freeze Watch        SOUTHWEST SUFFOLK  -  Freeze Watch Freeze Watch      

Active alerts

Northwest Suffolk
  Details for Northwest Suffolk Freeze Watch
Southwest Suffolk
  Details for Southwest Suffolk Freeze Watch
Northeast Suffolk
  Details for Northeast Suffolk Freeze Watch
Southeast Suffolk
  Details for Southeast Suffolk Freeze Watch


WXM80 ListenWXM80 Stop

You find our weather info also at:

UK Metoffice

WeatherCloud

Weather Underground

Northeastern Weather Network

AWEKAS

Citizen Weather Observer Program (CWOP)

HAMweather, WeatherForYou, PWS Weather


Weather Underground History page Text

Daily Summary for July 2, 2016 Units:  English    Metric   Both
« Previous Day
Next Day »
Daily Weekly Monthly Yearly Custom
  High: Low: Average:
Temperature: 81.5 °F 65.4 °F 72.3 °F
Dew Point: 66.7 °F 53.2 °F 59.9 °F
Humidity: 97 % 41 % 68 %
Wind Speed: 7.1 mph 0.0 mph 2.6 mph
Wind Gust: 15.0 mph - -
Wind:- - WSW
Pressure: 30.03 in 29.80 in -
Precipitation: 0.01 in    
Historical Graphs
 
 
Tabular Data for July 2, 2016
Time Temperature Dew Point Pressure Wind Wind Speed Wind Gust Humidity Rainfall Rate (Hourly)
00:02 66.8 °F 65.0 °F 29.82 in WSW 0.9 mph 2.3 mph 94 % 0.08 in
00:07 66.7 °F 64.9 °F 29.81 in WSW 0.2 mph 1.0 mph 94 % 0.05 in
00:18 66.7 °F 64.9 °F 29.82 in Calm     94 % 0.00 in
00:23 66.7 °F 65.2 °F 29.82 in SW 0.2 mph 3.0 mph 95 % 0.00 in
00:28 66.6 °F 65.1 °F 29.82 in SW 1.3 mph 4.0 mph 95 % 0.00 in
00:33 66.6 °F 65.1 °F 29.81 in Calm     95 % 0.00 in
00:38 66.6 °F 65.1 °F 29.81 in WSW 0.1 mph 2.3 mph 95 % 0.00 in
00:43 66.6 °F 65.1 °F 29.80 in Calm   1.2 mph 95 % 0.00 in
00:48 66.6 °F 65.1 °F 29.80 in WSW 0.1 mph 1.2 mph 95 % 0.00 in
00:53 66.6 °F 65.1 °F 29.81 in SW 1.8 mph 2.3 mph 95 % 0.00 in
00:58 66.6 °F 65.1 °F 29.81 in SW 1.3 mph 2.3 mph 95 % 0.00 in
01:04 66.6 °F 65.1 °F 29.81 in SW 0.3 mph 3.5 mph 95 % 0.00 in
01:09 66.7 °F 65.5 °F 29.81 in WSW 0.2 mph 2.3 mph 96 % 0.00 in
01:14 66.8 °F 65.6 °F 29.82 in South 0.6 mph 2.3 mph 96 % 0.00 in
01:19 66.8 °F 65.6 °F 29.82 in Calm     96 % 0.00 in
01:24 66.9 °F 65.7 °F 29.82 in SW 1.0 mph 3.5 mph 96 % 0.00 in
01:29 66.9 °F 65.7 °F 29.82 in Calm     96 % 0.00 in
01:34 67.0 °F 65.8 °F 29.81 in WSW 0.7 mph 2.3 mph 96 % 0.00 in
01:39 67.0 °F 65.8 °F 29.81 in WSW 0.3 mph 1.2 mph 96 % 0.00 in
01:44 67.0 °F 65.8 °F 29.81 in WSW 0.8 mph 2.0 mph 96 % 0.00 in
01:49 67.0 °F 65.8 °F 29.81 in WSW 1.3 mph 2.0 mph 96 % 0.00 in
01:55 67.0 °F 65.8 °F 29.82 in WSW 1.1 mph 3.5 mph 96 % 0.00 in
02:00 67.1 °F 65.9 °F 29.83 in WSW 4.2 mph 9.0 mph 96 % 0.00 in
02:05 67.3 °F 66.4 °F 29.82 in SW 1.8 mph 3.5 mph 97 % 0.00 in
02:10 67.4 °F 66.5 °F 29.82 in SW 3.6 mph 6.9 mph 97 % 0.00 in
02:15 67.5 °F 66.6 °F 29.83 in SW 1.8 mph 3.5 mph 97 % 0.00 in
02:20 67.6 °F 66.7 °F 29.82 in SW 1.0 mph 3.5 mph 97 % 0.00 in
02:25 67.6 °F 66.7 °F 29.82 in Calm     97 % 0.00 in
02:30 67.6 °F 66.7 °F 29.82 in WSW 1.9 mph 4.0 mph 97 % 0.00 in
02:35 67.6 °F 66.7 °F 29.82 in WSW 1.6 mph 3.5 mph 97 % 0.00 in
02:40 67.6 °F 66.7 °F 29.82 in SSW 2.3 mph 3.5 mph 97 % 0.00 in
02:46 67.6 °F 66.7 °F 29.82 in SSW 1.7 mph 2.3 mph 97 % 0.00 in
02:51 67.6 °F 66.7 °F 29.83 in SW 1.1 mph 3.5 mph 97 % 0.00 in
02:56 67.6 °F 66.7 °F 29.82 in SW 1.8 mph 3.5 mph 97 % 0.00 in
03:01 67.6 °F 66.7 °F 29.82 in SW 1.5 mph 3.5 mph 97 % 0.00 in
03:11 67.5 °F 66.3 °F 29.82 in WSW 0.1 mph 1.2 mph 96 % 0.00 in
03:16 67.5 °F 66.3 °F 29.82 in SW 1.5 mph 3.0 mph 96 % 0.00 in
03:21 67.4 °F 66.2 °F 29.82 in SW 1.2 mph 4.6 mph 96 % 0.00 in
03:26 67.4 °F 66.2 °F 29.82 in SW 0.6 mph 1.2 mph 96 % 0.00 in
03:31 67.4 °F 66.2 °F 29.82 in SW 0.9 mph 2.3 mph 96 % 0.00 in
03:37 67.3 °F 66.1 °F 29.82 in SW 1.0 mph 2.3 mph 96 % 0.00 in
03:42 67.3 °F 66.1 °F 29.82 in SW 0.6 mph 2.3 mph 96 % 0.00 in
03:47 67.2 °F 66.0 °F 29.82 in WSW 0.8 mph 3.5 mph 96 % 0.00 in
03:52 67.1 °F 65.9 °F 29.82 in WSW 0.7 mph 3.5 mph 96 % 0.00 in
03:57 67.1 °F 65.9 °F 29.83 in WSW 4.2 mph 8.1 mph 96 % 0.00 in
04:02 67.0 °F 65.8 °F 29.82 in SSW 1.1 mph 5.0 mph 96 % 0.00 in
04:07 67.0 °F 65.8 °F 29.82 in West 3.9 mph 6.9 mph 96 % 0.00 in
04:12 67.0 °F 65.8 °F 29.82 in WNW 1.3 mph 5.0 mph 96 % 0.00 in
04:17 67.0 °F 65.8 °F 29.83 in West 2.3 mph 4.6 mph 96 % 0.00 in
04:22 66.9 °F 65.7 °F 29.83 in WNW 0.9 mph 3.5 mph 96 % 0.00 in
04:28 66.9 °F 65.7 °F 29.83 in WNW 2.2 mph 4.0 mph 96 % 0.00 in
04:33 66.8 °F 65.6 °F 29.83 in West 1.6 mph 3.5 mph 96 % 0.00 in
04:38 66.7 °F 65.2 °F 29.83 in WSW 2.2 mph 3.5 mph 95 % 0.00 in
04:43 66.6 °F 65.1 °F 29.83 in WSW 2.0 mph 6.9 mph 95 % 0.00 in
04:48 66.5 °F 65.0 °F 29.83 in WSW 0.3 mph 2.3 mph 95 % 0.00 in
04:53 66.4 °F 64.9 °F 29.84 in West 0.7 mph 5.8 mph 95 % 0.00 in
04:58 66.3 °F 64.8 °F 29.84 in WNW 1.8 mph 5.8 mph 95 % 0.00 in
05:03 66.2 °F 64.4 °F 29.84 in West 0.4 mph 3.5 mph 94 % 0.00 in
05:08 66.1 °F 64.3 °F 29.85 in West 3.0 mph 3.5 mph 94 % 0.00 in
05:13 66.0 °F 64.2 °F 29.85 in WNW 1.3 mph 4.6 mph 94 % 0.00 in
05:19 65.9 °F 64.1 °F 29.85 in WNW 1.0 mph 3.5 mph 94 % 0.00 in
05:24 65.8 °F 64.0 °F 29.85 in WNW 1.6 mph 2.3 mph 94 % 0.00 in
05:29 65.8 °F 63.7 °F 29.86 in WSW 0.2 mph 3.5 mph 93 % 0.00 in
05:34 65.7 °F 63.6 °F 29.86 in WNW 0.4 mph 3.5 mph 93 % 0.00 in
05:39 65.6 °F 63.5 °F 29.86 in West 2.6 mph 6.9 mph 93 % 0.00 in
05:44 65.5 °F 63.4 °F 29.86 in NW 4.5 mph 6.9 mph 93 % 0.00 in
05:49 65.5 °F 63.4 °F 29.87 in NW 2.3 mph 6.9 mph 93 % 0.00 in
05:54 65.4 °F 63.0 °F 29.87 in West 2.7 mph 6.0 mph 92 % 0.00 in
05:59 65.4 °F 63.3 °F 29.87 in WSW 2.3 mph 3.5 mph 93 % 0.00 in
06:04 65.4 °F 63.3 °F 29.88 in West 1.9 mph 5.0 mph 93 % 0.00 in
06:10 65.4 °F 63.3 °F 29.88 in NNW 1.2 mph 3.5 mph 93 % 0.00 in
06:15 65.4 °F 63.0 °F 29.88 in NW 2.8 mph 6.0 mph 92 % 0.00 in
06:20 65.4 °F 63.0 °F 29.88 in West 3.3 mph 5.0 mph 92 % 0.00 in
06:25 65.5 °F 63.1 °F 29.88 in NNW 1.8 mph 4.6 mph 92 % 0.00 in
06:30 65.6 °F 63.5 °F 29.89 in West 0.2 mph 1.2 mph 93 % 0.00 in
06:35 65.8 °F 63.7 °F 29.89 in WNW 2.4 mph 5.8 mph 93 % 0.00 in
06:40 65.9 °F 63.8 °F 29.89 in West 1.9 mph 4.0 mph 93 % 0.00 in
06:50 66.3 °F 63.9 °F 29.90 in NW 2.0 mph 5.0 mph 92 % 0.00 in
06:55 66.5 °F 63.8 °F 29.90 in WNW 2.0 mph 3.5 mph 91 % 0.00 in
07:01 66.7 °F 63.7 °F 29.90 in WNW 0.9 mph 2.3 mph 90 % 0.00 in
07:06 67.0 °F 64.3 °F 29.90 in Calm   2.3 mph 91 % 0.00 in
07:11 67.4 °F 64.7 °F 29.90 in NW 1.9 mph 4.6 mph 91 % 0.00 in
07:16 67.8 °F 64.8 °F 29.91 in West 0.4 mph 3.5 mph 90 % 0.00 in
07:21 68.1 °F 64.7 °F 29.91 in WNW 0.9 mph 2.3 mph 89 % 0.00 in
07:26 68.4 °F 64.0 °F 29.91 in WSW 3.0 mph 4.6 mph 86 % 0.00 in
07:31 68.7 °F 64.0 °F 29.91 in WNW 4.4 mph 8.1 mph 85 % 0.00 in
07:36 68.8 °F 62.7 °F 29.91 in West 3.3 mph 6.9 mph 81 % 0.00 in
07:41 68.8 °F 62.7 °F 29.91 in West 1.1 mph 3.5 mph 81 % 0.00 in
07:52 68.5 °F 61.7 °F 29.92 in West 4.8 mph 6.9 mph 79 % 0.00 in
07:57 68.3 °F 61.5 °F 29.92 in West 1.8 mph 4.6 mph 79 % 0.00 in
08:02 68.1 °F 61.0 °F 29.92 in West 3.9 mph 11.5 mph 78 % 0.00 in
08:07 68.0 °F 61.2 °F 29.92 in WNW 3.8 mph 10.4 mph 79 % 0.00 in
08:12 67.8 °F 61.0 °F 29.92 in WSW 4.1 mph 7.0 mph 79 % 0.00 in
08:17 67.7 °F 60.6 °F 29.92 in WNW 4.9 mph 11.5 mph 78 % 0.00 in
08:22 67.7 °F 60.6 °F 29.92 in WSW 4.5 mph 9.2 mph 78 % 0.00 in
08:27 67.6 °F 60.1 °F 29.92 in West 3.0 mph 6.9 mph 77 % 0.00 in
08:32 67.6 °F 60.1 °F 29.92 in WNW 3.5 mph 10.4 mph 77 % 0.00 in
08:37 67.7 °F 59.9 °F 29.92 in NNW 3.0 mph 5.8 mph 76 % 0.00 in
08:43 67.8 °F 60.7 °F 29.92 in West 4.0 mph 7.0 mph 78 % 0.00 in
08:48 67.9 °F 60.4 °F 29.92 in WNW 4.6 mph 11.5 mph 77 % 0.00 in
08:53 68.1 °F 59.9 °F 29.92 in West 1.1 mph 6.9 mph 75 % 0.00 in
08:58 68.1 °F 59.9 °F 29.93 in West 6.1 mph 8.1 mph 75 % 0.00 in
09:03 68.2 °F 60.3 °F 29.93 in NW 3.1 mph 5.8 mph 76 % 0.00 in
09:08 68.3 °F 60.1 °F 29.93 in West 2.1 mph 8.0 mph 75 % 0.00 in
09:13 68.3 °F 59.3 °F 29.93 in North 4.7 mph 12.7 mph 73 % 0.00 in
09:18 68.4 °F 59.0 °F 29.93 in North 6.6 mph 11.5 mph 72 % 0.00 in
09:28 68.6 °F 58.8 °F 29.92 in NNW 3.9 mph 9.2 mph 71 % 0.00 in
09:34 68.9 °F 59.5 °F 29.92 in NW 4.7 mph 9.0 mph 72 % 0.00 in
09:39 69.2 °F 60.2 °F 29.92 in WSW 5.3 mph 5.8 mph 73 % 0.00 in
09:44 69.6 °F 60.6 °F 29.92 in NW 4.3 mph 11.5 mph 73 % 0.00 in
09:54 70.6 °F 59.5 °F 29.92 in SW 4.6 mph 9.2 mph 68 % 0.00 in
09:59 71.2 °F 60.5 °F 29.92 in SW 4.4 mph 9.2 mph 69 % 0.00 in
10:04 71.8 °F 60.7 °F 29.92 in West 1.8 mph 5.8 mph 68 % 0.00 in
10:09 72.5 °F 60.9 °F 29.92 in SW 5.9 mph 8.1 mph 67 % 0.00 in
10:14 73.2 °F 62.4 °F 29.92 in North 2.9 mph 4.6 mph 69 % 0.00 in
10:19 73.8 °F 60.4 °F 29.93 in WNW 5.1 mph 9.2 mph 63 % 0.00 in
10:25 74.3 °F 61.8 °F 29.92 in North 2.9 mph 6.9 mph 65 % 0.00 in
10:30 75.0 °F 62.0 °F 29.93 in North 4.6 mph 6.9 mph 64 % 0.00 in
10:35 75.4 °F 61.5 °F 29.93 in WNW 2.9 mph 9.2 mph 62 % 0.00 in
10:40 75.8 °F 60.0 °F 29.93 in West 5.2 mph 8.0 mph 58 % 0.01 in
10:45 76.2 °F 62.2 °F 29.92 in NW 2.9 mph 5.0 mph 62 % 0.01 in
10:50 76.7 °F 62.2 °F 29.92 in North 3.1 mph 9.0 mph 61 % 0.01 in
10:55 77.1 °F 60.7 °F 29.93 in WNW 3.9 mph 8.1 mph 57 % 0.01 in
11:00 77.5 °F 60.6 °F 29.92 in WNW 5.6 mph 11.5 mph 56 % 0.01 in
11:05 77.7 °F 61.3 °F 29.93 in WNW 4.0 mph 8.0 mph 57 % 0.01 in
11:11 77.8 °F 60.8 °F 29.93 in West 3.7 mph 10.4 mph 56 % 0.01 in
11:16 77.7 °F 60.8 °F 29.93 in North 3.3 mph 4.6 mph 56 % 0.01 in
11:21 77.9 °F 60.9 °F 29.93 in NNE 4.9 mph 9.2 mph 56 % 0.01 in
11:26 78.0 °F 61.0 °F 29.93 in NNE 0.8 mph 8.1 mph 56 % 0.01 in
11:31 77.8 °F 60.3 °F 29.93 in NE 3.0 mph 6.9 mph 55 % 0.01 in
11:36 77.6 °F 61.2 °F 29.93 in West 4.4 mph 9.2 mph 57 % 0.01 in
11:41 77.4 °F 59.5 °F 29.93 in NNW 2.6 mph 9.2 mph 54 % 0.00 in
11:46 77.4 °F 60.5 °F 29.93 in NE 1.8 mph 3.5 mph 56 % 0.00 in
11:51 77.4 °F 60.5 °F 29.93 in NW 4.9 mph 11.5 mph 56 % 0.00 in
11:56 77.4 °F 59.5 °F 29.93 in WSW 5.0 mph 10.0 mph 54 % 0.00 in
12:02 77.6 °F 60.7 °F 29.93 in WSW 4.8 mph 11.5 mph 56 % 0.00 in
12:07 77.7 °F 59.2 °F 29.93 in West 3.0 mph 10.4 mph 53 % 0.00 in
12:12 77.9 °F 58.3 °F 29.93 in West 6.6 mph 13.8 mph 51 % 0.00 in
12:17 77.9 °F 58.9 °F 29.93 in WNW 5.5 mph 12.7 mph 52 % 0.00 in
12:22 78.0 °F 59.5 °F 29.93 in West 3.4 mph 8.1 mph 53 % 0.00 in
12:27 78.2 °F 58.6 °F 29.93 in WNW 7.1 mph 12.7 mph 51 % 0.00 in
12:32 78.3 °F 58.7 °F 29.93 in WSW 4.6 mph 9.2 mph 51 % 0.00 in
12:37 78.4 °F 58.8 °F 29.94 in WNW 4.6 mph 9.0 mph 51 % 0.00 in
12:42 78.6 °F 59.5 °F 29.94 in West 3.2 mph 11.5 mph 52 % 0.00 in
12:47 78.9 °F 59.2 °F 29.94 in WSW 5.4 mph 7.0 mph 51 % 0.00 in
12:53 79.2 °F 61.1 °F 29.94 in West 4.4 mph 12.0 mph 54 % 0.00 in
12:58 79.4 °F 60.2 °F 29.94 in WNW 1.2 mph 8.1 mph 52 % 0.00 in
13:03 79.5 °F 59.8 °F 29.94 in WSW 4.0 mph 8.1 mph 51 % 0.00 in
13:08 79.5 °F 60.3 °F 29.94 in SSW 1.4 mph 11.5 mph 52 % 0.00 in
13:13 79.4 °F 58.0 °F 29.94 in West 4.3 mph 11.5 mph 48 % 0.00 in
13:18 79.5 °F 58.1 °F 29.94 in WSW 6.0 mph 8.1 mph 48 % 0.00 in
13:23 79.3 °F 59.0 °F 29.94 in WNW 3.1 mph 12.7 mph 50 % 0.00 in
13:28 79.4 °F 57.4 °F 29.94 in North 5.9 mph 15.0 mph 47 % 0.00 in
13:33 79.6 °F 59.3 °F 29.94 in West 2.1 mph 8.1 mph 50 % 0.00 in
13:38 79.8 °F 57.8 °F 29.94 in West 5.0 mph 10.4 mph 47 % 0.00 in
13:44 79.9 °F 60.7 °F 29.94 in West 4.2 mph 8.0 mph 52 % 0.00 in
13:49 80.0 °F 57.4 °F 29.94 in NNW 6.9 mph 12.7 mph 46 % 0.00 in
13:54 80.2 °F 58.7 °F 29.94 in West 5.2 mph 10.4 mph 48 % 0.00 in
13:59 80.3 °F 57.0 °F 29.94 in West 6.9 mph 11.5 mph 45 % 0.00 in
14:04 80.4 °F 60.1 °F 29.94 in NW 3.9 mph 9.2 mph 50 % 0.00 in
14:09 80.7 °F 59.8 °F 29.94 in NNE 3.5 mph 4.0 mph 49 % 0.00 in
14:14 80.8 °F 57.5 °F 29.94 in WNW 2.7 mph 11.5 mph 45 % 0.00 in
14:19 81.1 °F 58.4 °F 29.94 in WSW 3.8 mph 10.4 mph 46 % 0.00 in
14:24 81.2 °F 57.8 °F 29.94 in WNW 6.8 mph 10.0 mph 45 % 0.00 in
14:29 81.3 °F 57.9 °F 29.94 in WNW 4.5 mph 11.5 mph 45 % 0.00 in
14:35 81.3 °F 57.3 °F 29.94 in WSW 6.5 mph 11.5 mph 44 % 0.00 in
14:40 81.4 °F 56.8 °F 29.94 in NNW 6.2 mph 13.8 mph 43 % 0.00 in
14:45 81.4 °F 56.8 °F 29.94 in West 4.9 mph 12.7 mph 43 % 0.00 in
14:50 81.2 °F 57.8 °F 29.94 in WNW 3.7 mph 8.1 mph 45 % 0.00 in
14:55 81.2 °F 58.5 °F 29.94 in WNW 4.4 mph 11.0 mph 46 % 0.00 in
15:00 81.3 °F 58.5 °F 29.94 in West 4.3 mph 11.0 mph 46 % 0.00 in
15:05 81.2 °F 57.2 °F 29.94 in NW 2.7 mph 8.1 mph 44 % 0.00 in
15:10 81.4 °F 58.0 °F 29.94 in WNW 3.6 mph 8.1 mph 45 % 0.00 in
15:15 81.4 °F 57.4 °F 29.94 in NW 5.7 mph 11.5 mph 44 % 0.00 in
15:20 81.2 °F 56.6 °F 29.94 in North 3.8 mph 13.8 mph 43 % 0.00 in
15:31 81.0 °F 57.0 °F 29.94 in West 5.3 mph 8.1 mph 44 % 0.00 in
15:36 81.1 °F 58.4 °F 29.94 in NE 2.6 mph 11.5 mph 46 % 0.00 in
15:41 81.2 °F 56.6 °F 29.94 in WSW 4.8 mph 8.1 mph 43 % 0.00 in
15:46 81.2 °F 57.8 °F 29.94 in WNW 4.4 mph 11.5 mph 45 % 0.00 in
15:51 81.2 °F 57.2 °F 29.94 in WNW 5.6 mph 9.2 mph 44 % 0.00 in
15:56 81.4 °F 57.4 °F 29.94 in East 1.3 mph 6.9 mph 44 % 0.00 in
16:01 81.5 °F 58.7 °F 29.94 in West 2.2 mph 5.0 mph 46 % 0.00 in
16:06 81.4 °F 56.8 °F 29.94 in West 3.3 mph 10.4 mph 43 % 0.00 in
16:11 81.3 °F 57.9 °F 29.94 in WNW 3.6 mph 5.8 mph 45 % 0.00 in
16:17 81.1 °F 55.2 °F 29.94 in West 4.3 mph 10.4 mph 41 % 0.00 in
16:22 80.6 °F 56.7 °F 29.94 in WSW 1.7 mph 9.2 mph 44 % 0.00 in
16:27 80.0 °F 57.4 °F 29.94 in West 2.0 mph 9.2 mph 46 % 0.00 in
16:32 79.8 °F 57.2 °F 29.95 in NW 2.3 mph 5.8 mph 46 % 0.00 in
16:37 79.7 °F 58.3 °F 29.95 in WNW 4.0 mph 6.0 mph 48 % 0.00 in
16:42 79.6 °F 57.0 °F 29.95 in SW 3.7 mph 5.8 mph 46 % 0.00 in
16:47 79.4 °F 55.6 °F 29.95 in WNW 4.4 mph 6.9 mph 44 % 0.00 in
16:52 79.2 °F 57.2 °F 29.96 in NW 2.3 mph 9.0 mph 47 % 0.00 in
16:57 78.8 °F 57.4 °F 29.95 in WSW 4.1 mph 8.0 mph 48 % 0.00 in
17:02 78.3 °F 55.8 °F 29.95 in NW 3.3 mph 9.2 mph 46 % 0.00 in
17:08 78.0 °F 54.9 °F 29.96 in WSW 2.7 mph 5.8 mph 45 % 0.00 in
17:13 77.7 °F 54.7 °F 29.95 in West 5.2 mph 8.1 mph 45 % 0.00 in
17:18 77.4 °F 55.0 °F 29.96 in NW 3.1 mph 6.9 mph 46 % 0.00 in
17:24 77.3 °F 55.5 °F 29.95 in WSW 6.5 mph 11.5 mph 47 % 0.00 in
17:29 77.3 °F 55.5 °F 29.95 in WNW 4.7 mph 6.0 mph 47 % 0.00 in
17:34 77.4 °F 56.7 °F 29.95 in West 0.8 mph 8.1 mph 49 % 0.00 in
17:39 77.4 °F 56.2 °F 29.95 in NW 3.0 mph 7.0 mph 48 % 0.00 in
17:45 77.4 °F 55.0 °F 29.95 in WNW 2.7 mph 8.1 mph 46 % 0.00 in
17:50 77.3 °F 56.1 °F 29.95 in West 2.5 mph 6.9 mph 48 % 0.00 in
17:55 77.1 °F 54.7 °F 29.95 in West 5.6 mph 9.2 mph 46 % 0.00 in
18:00 76.7 °F 53.8 °F 29.95 in WSW 5.4 mph 9.2 mph 45 % 0.00 in
18:05 76.6 °F 53.7 °F 29.95 in West 5.0 mph 8.1 mph 45 % 0.00 in
18:10 76.5 °F 54.2 °F 29.95 in West 4.7 mph 9.2 mph 46 % 0.00 in
18:15 76.4 °F 54.1 °F 29.95 in NW 4.9 mph 6.9 mph 46 % 0.00 in
18:20 76.3 °F 54.0 °F 29.95 in West 5.4 mph 9.2 mph 46 % 0.00 in
18:25 76.2 °F 53.9 °F 29.95 in WSW 3.5 mph 5.8 mph 46 % 0.00 in
18:30 76.1 °F 53.8 °F 29.96 in WSW 6.2 mph 6.2 mph 46 % 0.00 in
18:36 76.0 °F 54.3 °F 29.96 in WSW 4.0 mph 6.0 mph 47 % 0.00 in
18:41 75.9 °F 53.6 °F 29.96 in WNW 3.2 mph 8.1 mph 46 % 0.00 in
18:46 75.8 °F 54.1 °F 29.97 in SW 5.1 mph 6.9 mph 47 % 0.00 in
18:51 75.7 °F 54.0 °F 29.97 in West 4.5 mph 9.2 mph 47 % 0.00 in
18:56 75.6 °F 53.9 °F 29.97 in SW 2.7 mph 8.1 mph 47 % 0.00 in
19:01 75.5 °F 53.3 °F 29.97 in WNW 5.2 mph 9.2 mph 46 % 0.00 in
19:06 75.4 °F 53.2 °F 29.97 in WSW 4.6 mph 8.1 mph 46 % 0.00 in
19:11 75.3 °F 53.7 °F 29.97 in WSW 3.7 mph 5.8 mph 47 % 0.00 in
19:16 75.3 °F 54.3 °F 29.97 in WNW 0.3 mph 5.8 mph 48 % 0.00 in
19:21 75.3 °F 55.4 °F 29.97 in West 3.1 mph 6.9 mph 50 % 0.00 in
19:27 75.3 °F 54.8 °F 29.98 in SW 4.3 mph 7.0 mph 49 % 0.00 in
19:32 75.3 °F 55.4 °F 29.98 in WSW 3.1 mph 4.6 mph 50 % 0.00 in
19:37 75.2 °F 55.8 °F 29.98 in WSW 2.1 mph 4.0 mph 51 % 0.00 in
19:42 75.1 °F 56.3 °F 29.98 in WSW 2.1 mph 4.6 mph 52 % 0.00 in
19:47 74.9 °F 56.6 °F 29.98 in SW 1.3 mph 3.5 mph 53 % 0.00 in
19:52 74.8 °F 56.0 °F 29.98 in West 1.9 mph 4.0 mph 52 % 0.00 in
19:57 74.6 °F 55.8 °F 29.98 in SW 3.2 mph 6.0 mph 52 % 0.00 in
20:02 74.4 °F 55.6 °F 29.98 in WSW 1.1 mph 5.0 mph 52 % 0.00 in
20:07 74.2 °F 56.0 °F 29.98 in WSW 2.0 mph 3.5 mph 53 % 0.00 in
20:12 74.0 °F 56.3 °F 29.98 in WSW 0.8 mph 2.3 mph 54 % 0.00 in
20:18 73.8 °F 55.6 °F 29.98 in WSW 0.6 mph 3.5 mph 53 % 0.00 in
20:28 73.3 °F 55.6 °F 29.98 in WSW 0.8 mph 3.5 mph 54 % 0.00 in
20:38 72.8 °F 55.7 °F 29.98 in WSW 0.7 mph 3.0 mph 55 % 0.00 in
20:43 72.4 °F 55.3 °F 29.98 in WSW 0.4 mph 2.0 mph 55 % 0.00 in
20:48 72.2 °F 55.1 °F 29.99 in WSW 0.2 mph 1.2 mph 55 % 0.00 in
20:53 71.9 °F 54.9 °F 29.99 in Calm   1.2 mph 55 % 0.00 in
20:58 71.7 °F 54.7 °F 29.99 in Calm   3.5 mph 55 % 0.00 in
21:03 71.5 °F 55.0 °F 29.99 in SW 0.6 mph 3.5 mph 56 % 0.00 in
21:09 71.2 °F 54.7 °F 29.99 in SW 0.6 mph 2.3 mph 56 % 0.00 in
21:14 71.0 °F 55.0 °F 29.99 in SW 1.3 mph 3.5 mph 57 % 0.00 in
21:24 70.6 °F 54.6 °F 30.00 in SW 0.8 mph 2.3 mph 57 % 0.00 in
21:29 70.4 °F 54.4 °F 30.01 in SW 1.4 mph 2.3 mph 57 % 0.00 in
21:34 70.2 °F 54.2 °F 30.01 in SW 1.4 mph 3.5 mph 57 % 0.00 in
21:39 70.1 °F 54.6 °F 30.01 in SW 0.7 mph 1.2 mph 58 % 0.00 in
21:44 69.9 °F 54.4 °F 30.01 in WSW 1.8 mph 4.6 mph 58 % 0.00 in
21:49 69.8 °F 53.9 °F 30.01 in WSW 1.2 mph 3.0 mph 57 % 0.00 in
21:54 69.7 °F 54.3 °F 30.02 in WSW 1.7 mph 3.5 mph 58 % 0.00 in
22:00 69.6 °F 54.6 °F 30.02 in SW 1.7 mph 3.5 mph 59 % 0.00 in
22:05 69.5 °F 54.5 °F 30.02 in SSW 1.6 mph 3.5 mph 59 % 0.00 in
22:10 69.4 °F 54.9 °F 30.02 in Calm   1.2 mph 60 % 0.00 in
22:15 69.3 °F 54.8 °F 30.02 in SSW 0.4 mph 2.0 mph 60 % 0.00 in
22:20 69.2 °F 54.7 °F 30.02 in Calm   2.3 mph 60 % 0.00 in
22:25 69.1 °F 54.6 °F 30.02 in Calm     60 % 0.00 in
22:30 69.0 °F 54.5 °F 30.02 in SSW 0.4 mph 2.0 mph 60 % 0.00 in
22:35 68.9 °F 54.4 °F 30.02 in Calm   1.2 mph 60 % 0.00 in
22:40 68.8 °F 54.3 °F 30.02 in SW 1.0 mph 1.2 mph 60 % 0.00 in
22:45 68.7 °F 54.3 °F 30.02 in SW 0.6 mph 2.3 mph 60 % 0.00 in
22:51 68.6 °F 54.2 °F 30.02 in SW 0.9 mph 2.3 mph 60 % 0.00 in
22:56 68.5 °F 54.1 °F 30.02 in SW 0.5 mph 2.3 mph 60 % 0.00 in
23:01 68.4 °F 54.4 °F 30.02 in West 1.2 mph 3.5 mph 61 % 0.00 in
23:06 68.3 °F 54.3 °F 30.02 in SW 1.5 mph 3.5 mph 61 % 0.00 in
23:11 68.3 °F 54.3 °F 30.02 in SSW 0.4 mph 3.5 mph 61 % 0.00 in
23:21 68.2 °F 54.2 °F 30.03 in WSW 0.7 mph 2.3 mph 61 % 0.00 in
23:26 68.2 °F 54.7 °F 30.03 in SW 0.5 mph 3.5 mph 62 % 0.00 in
23:36 68.1 °F 54.6 °F 30.02 in WSW 1.8 mph 3.5 mph 62 % 0.00 in
23:42 68.1 °F 54.6 °F 30.02 in SW 1.8 mph 4.0 mph 62 % 0.00 in
23:47 68.2 °F 54.7 °F 30.02 in SW 1.7 mph 5.0 mph 62 % 0.00 in
23:52 68.2 °F 54.7 °F 30.02 in SSW 0.9 mph 3.5 mph 62 % 0.00 in
23:57 68.2 °F 55.1 °F 30.02 in SSW 0.3 mph 1.2 mph 63 % 0.00 in
Crab Meadow Weather
Compliments of Weather Underground - 2.75 mb

Script developed by  Jim McMurry - jmcmurry@mwt.net Adapted for the template by  Wim van der Kuil - Leuven-Template.eu

Recycling: In 2006, a record 53.4 percent of the paper consumed in the U.S. was recovered for recycling. Americans recovered an extraordinary 53.5 million tons, averaging 360 pounds per person.